[[{"header":{"parameterUnit":"m.s-1","parameterCategory":1,"la1":30.2991,"la2":30.254,"lo1":-89.0895,"lo2":-89.0444,"dy":0.0017,"dx":0.0017,"nx":28,"ny":28,"refTime":"2024-08-24T03:00:00:Z","depth":0,"parameterNumber":2,"parameterNumberName":"U-component_of_WINDS"},"data":[0,0,0,0,0,0,0,0,0,0,0,0,0,0,0,0,0,0,0,0,0,0,0,0,0,0,0,0,0,0,0,0,0,0,0,0,0,0,0,0,0,0,0,0,0,0,0,0,0,0,0,0,0,0,0,0,0,0,-4.2837,-4.2836,0,-4.2813,-4.2813,-4.2813,-4.2604,-4.2598,-4.2593,-4.2588,-4.2569,-4.2573,-4.2577,0,0,0,0,0,0,0,0,0,0,0,0,0,-4.2704,-4.2708,-4.2837,-4.2836,-4.2836,-4.2813,-4.2813,-4.2812,-4.2604,-4.2598,-4.2592,-4.2586,-4.2567,-4.2572,-4.2578,0,0,0,0,0,0,0,0,0,0,0,0,0,-4.273,-4.2709,-4.2837,-4.2729,-4.2719,-4.2813,-4.2813,-4.2812,-4.2606,-4.2598,-4.259,-4.2583,-4.2566,-4.2572,-4.2578,-4.2775,0,0,-4.2598,-4.2601,0,0,0,0,0,0,0,0,-4.2729,-4.2735,-4.2745,-4.2737,-4.2726,-4.2703,-4.2759,-4.28,-4.2608,-4.2649,-4.2588,-4.2579,-4.262,-4.2622,-4.2634,-4.2774,-4.2773,-4.2599,-4.2603,-4.2605,-4.2607,0,0,0,0,0,0,0,-4.2727,-4.2735,-4.2827,-4.2746,-4.2734,-4.2683,-4.2678,-4.2766,-4.2679,-4.2645,-4.263,-4.263,-4.2613,-4.2629,-4.2632,-4.2772,-4.2599,-4.2604,-4.2608,-4.2611,-4.307,-4.3078,0,0,0,0,0,0,-4.274,-4.2735,-4.2828,-4.2827,-4.2708,-4.2692,-4.2686,-4.2718,-4.2677,-4.2663,-4.2636,-4.262,-4.2621,-4.2625,-4.2631,-4.2857,-4.2605,-4.2611,-4.2615,-4.3062,-4.3072,-4.3081,0,0,0,0,0,0,-4.2738,-4.275,-4.2829,-4.2776,-4.2783,-4.2703,-4.274,-4.2722,-4.2737,-4.267,-4.2654,-4.2668,-4.2615,-4.2622,-4.274,-4.2854,-4.2614,-4.262,-4.3052,-4.3065,-4.3077,-4.3313,0,0,0,0,0,0,-4.2735,-4.2751,-4.2824,-4.278,-4.2786,-4.2938,-4.2747,-4.2727,-4.2748,-4.2727,-4.2696,-4.2683,-4.261,-4.2731,-4.2746,-4.2858,-4.2625,-4.3042,-4.3058,-4.3073,-4.3294,-4.3332,-4.3364,0,0,0,0,0,-4.2731,-4.2892,-4.2829,-4.2841,-4.2876,-4.2945,-4.2949,-4.286,-4.2758,-4.2832,-4.2789,-4.2684,-4.2839,-4.2745,-4.276,-4.2876,-4.3034,-4.3053,-4.3072,-4.3279,-4.3324,-4.3363,0,0,0,0,0,0,-4.2954,-4.2885,-4.2813,-4.2965,-4.2963,-4.291,-4.2999,-4.2911,-4.2938,-4.2917,-4.2807,-4.2801,-4.2937,-4.2917,-4.2815,-4.3063,-4.2918,-4.2941,-4.3071,-4.3113,-4.3147,-4.3149,-4.2631,0,0,0,0,0,-4.3021,-4.3082,-4.3018,-4.3158,-4.316,-4.3081,-4.3108,-4.3039,-4.3032,-4.3031,-4.2996,-4.2995,-4.3042,-4.3077,-4.3117,-4.329,-4.3281,-4.3377,-4.3412,-4.3441,-4.3462,-4.3551,-4.3594,-4.3143,-4.3143,-4.3142,0,0,-4.316,-4.3129,-4.3175,-4.3202,-4.3192,-4.3259,-4.3081,-4.3159,-4.3208,-4.3043,-4.3151,-4.3127,-4.3118,-4.3264,-4.3327,-4.3253,-4.3584,-4.3465,-4.3488,-4.3493,-4.3575,-4.3618,-4.3656,-4.3155,-4.3153,-4.3151,0,0,-4.3447,-4.343,-4.3544,-4.3537,-4.3523,-4.3468,-4.3496,-4.3457,-4.3433,-4.354,-4.3418,-4.3474,-4.3559,-4.3558,-4.3568,-4.3853,-4.3758,-4.387,-4.4051,-4.414,-4.4175,-4.4206,-4.4308,-4.4346,-4.3891,-4.3892,-4.3892,0,-4.3622,-4.3715,-4.3614,-4.37,-4.3716,-4.3567,-4.3683,-4.3681,-4.3683,-4.3698,-4.3614,-4.3716,-4.37,-4.3844,-4.3913,-4.3927,-4.3955,-4.3873,-4.4178,-4.4208,-4.4235,-4.4331,-4.437,-4.3905,-4.3904,-4.3902,-4.3901,0,-4.3931,-4.3998,-4.4092,-4.4095,-4.4121,-4.4222,-4.4137,-4.4176,-4.4105,-4.406,-4.4171,-4.4146,-4.4178,-4.4207,-4.4139,-4.4341,-4.4295,-4.4197,-4.4049,-4.4294,-4.4382,-4.4418,-4.3925,-4.392,-4.3916,-4.3912,0,0,-4.4359,-4.4303,-4.4339,-4.4338,-4.4311,-4.4362,-4.4456,-4.4485,-4.4521,-4.4527,-4.4603,-4.4678,-4.4586,-4.4598,-4.4528,-4.4607,-4.4834,-4.4498,-4.4496,-4.4561,-4.5055,-4.513,-4.5174,-4.477,-4.4777,-4.4782,-4.5056,0,-4.4635,-4.479,-4.4701,-4.487,-4.4931,-4.479,-4.4871,-4.4865,-4.4825,-4.4872,-4.4828,-4.4882,-4.4757,-4.4763,-4.4834,-4.4792,-4.4932,-4.477,-4.4841,-4.4845,-4.4848,-4.522,-4.5299,-4.5559,-4.509,-4.5095,-4.51,0,-4.4977,-4.4996,-4.517,-4.513,-4.5152,-4.5227,-4.5247,-4.5293,-4.5282,-4.5248,-4.5261,-4.5172,-4.5262,-4.5116,-4.5238,-4.5131,-4.5154,-4.5138,-4.5146,-4.5149,-4.4988,-4.5234,-4.5639,-4.5679,-4.5153,-4.5149,-4.5145,0,-4.5272,-4.534,-4.5453,-4.5456,-4.5413,-4.5469,-4.5454,-4.5435,-4.5458,-4.5476,-4.549,-4.552,-4.5536,-4.5561,-4.5483,-4.5383,-4.5616,-4.5463,-4.5591,-4.5594,-4.5647,-4.5645,-4.6062,-4.5663,-4.5662,-4.5661,-4.566,0,-4.559,-4.5702,-4.5584,-4.5654,-4.5776,-4.5673,-4.5797,-4.5766,-4.5751,-4.5813,-4.5693,-4.5755,-4.5647,-4.5698,-4.5637,-4.5748,-4.5756,-4.5732,-4.5714,-4.5743,-4.5746,-4.5757,-4.5737,-4.5671,-4.5669,-4.5667,-4.5665,0,-4.594,-4.5866,-4.5979,-4.5928,-4.5918,-4.601,-4.5966,-4.6029,-4.598,-4.606,-4.6073,-4.5998,-4.6051,-4.5975,-4.6021,-4.598,-4.6132,-4.6088,-4.6136,-4.6123,-4.6255,-4.6244,-4.6694,-4.6748,-4.6315,-4.6319,-4.6322,0,-4.6147,-4.623,-4.6187,-4.6219,-4.621,-4.6263,-4.6286,-4.6188,-4.6217,-4.621,-4.6274,-4.6317,-4.6346,-4.6437,-4.6388,-4.6422,-4.6377,-4.6533,-4.6382,-4.6407,-4.638,-4.6376,-4.6384,-4.6564,-4.6569,-4.6574,-4.6577,0,-4.6523,-4.6482,-4.6518,-4.6542,-4.6572,-4.6587,-4.6592,-4.6626,-4.6523,-4.6562,-4.6613,-4.6636,-4.6681,-4.6725,-4.6747,-4.6732,-4.6639,-4.6625,-4.6656,-4.6686,-4.671,-4.6699,-4.6221,-4.6615,-4.6611,-4.6609,-4.6607,-4.6605,-4.6808,-4.6874,-4.6854,-4.6899,-4.6892,-4.69,-4.6956,-4.6914,-4.6955,-4.6983,-4.6923,-4.699,-4.6976,-4.6995,-4.6991,-4.7042,-4.6974,-4.702,-4.7031,-4.7044,-4.7065,-4.6702,-4.7046,-4.7044,-4.7043,-4.7042,-4.7041,0,-4.7178,-4.7157,-4.7199,-4.721,-4.7245,-4.7151,-4.7153,-4.7189,-4.7249,-4.7243,-4.7273,-4.7333,-4.7375,-4.7328,-4.7362,-4.7412,-4.737,-4.7424,-4.742,-4.7418,-4.7123,-4.7093,-4.7458,-4.7458,-4.7458,-4.7457,-4.7457,-4.7457,-4.7374,-4.7481,-4.7438,-4.7541,-4.7519,-4.7583,-4.7591,-4.7598,-4.7593,-4.7665,-4.7698,-4.7667,-4.7645,-4.7676,-4.771,-4.7695,-4.7714,-4.7783,-4.7754,-4.748,-4.7439,-4.74,-4.7371,-4.7788,-4.7788,-4.8044,-4.8046,-4.8048]},{"header":{"parameterUnit":"m.s-1","parameterCategory":1,"la1":30.2991,"la2":30.254,"lo1":-89.0895,"lo2":-89.0444,"dy":0.0017,"dx":0.0017,"nx":28,"ny":28,"refTime":"2024-08-24T03:00:00:Z","depth":0,"parameterNumber":3,"parameterNumberName":"V-component_of_WINDS"},"data":[0,0,0,0,0,0,0,0,0,0,0,0,0,0,0,0,0,0,0,0,0,0,0,0,0,0,0,0,0,0,0,0,0,0,0,0,0,0,0,0,0,0,0,0,0,0,0,0,0,0,0,0,0,0,0,0,0,0,-2.1767,-2.1768,0,-2.1839,-2.184,-2.1841,-2.1842,-2.1841,-2.184,-2.1839,-2.1911,-2.1914,-2.1917,0,0,0,0,0,0,0,0,0,0,0,0,0,-2.1626,-2.1629,-2.1767,-2.1768,-2.1769,-2.1839,-2.184,-2.1841,-2.1842,-2.1841,-2.184,-2.1839,-2.191,-2.1914,-2.1917,0,0,0,0,0,0,0,0,0,0,0,0,0,-2.1692,-2.163,-2.1767,-2.1778,-2.1779,-2.1839,-2.184,-2.1842,-2.1842,-2.1841,-2.1839,-2.1838,-2.1909,-2.1913,-2.1917,-2.197,0,0,-2.193,-2.1932,0,0,0,0,0,0,0,0,-2.1688,-2.1697,-2.1775,-2.1777,-2.1779,-2.183,-2.1817,-2.1885,-2.1842,-2.1818,-2.1839,-2.1837,-2.1885,-2.1891,-2.1908,-2.1974,-2.1977,-2.193,-2.1933,-2.1935,-2.1936,0,0,0,0,0,0,0,-2.1684,-2.1694,-2.1796,-2.1776,-2.1779,-2.1778,-2.1786,-2.183,-2.1858,-2.182,-2.182,-2.1829,-2.1886,-2.1904,-2.1909,-2.1978,-2.193,-2.1934,-2.1937,-2.1938,-2.209,-2.2091,0,0,0,0,0,0,-2.1677,-2.169,-2.1793,-2.1798,-2.1729,-2.1782,-2.179,-2.1815,-2.1858,-2.1863,-2.183,-2.1829,-2.1897,-2.1905,-2.1912,-2.1976,-2.1935,-2.1939,-2.1941,-2.2088,-2.209,-2.2092,0,0,0,0,0,0,-2.1674,-2.1687,-2.179,-2.1744,-2.1757,-2.1786,-2.1813,-2.1817,-2.1835,-2.1866,-2.187,-2.1843,-2.1897,-2.1906,-2.1956,-2.1979,-2.194,-2.1944,-2.2087,-2.2089,-2.2091,-2.2106,0,0,0,0,0,0,-2.167,-2.1685,-2.1707,-2.1745,-2.176,-2.1834,-2.1815,-2.182,-2.1843,-2.1841,-2.1879,-2.1884,-2.1896,-2.195,-2.196,-2.1984,-2.1947,-2.2085,-2.2088,-2.209,-2.2103,-2.2108,-2.2113,0,0,0,0,0,-2.1665,-2.1708,-2.1708,-2.172,-2.1787,-2.1835,-2.1844,-2.1857,-2.1844,-2.1865,-2.1885,-2.1883,-2.1975,-2.1955,-2.1966,-2.1992,-2.2083,-2.2087,-2.209,-2.2101,-2.2107,-2.2112,0,0,0,0,0,0,-2.1671,-2.1713,-2.1713,-2.177,-2.1799,-2.1835,-2.1862,-2.1864,-2.1897,-2.1894,-2.1909,-2.1917,-2.1967,-2.1984,-2.1961,-2.2045,-2.2027,-2.2033,-2.2032,-2.2038,-2.2042,-2.2037,-2.1951,0,0,0,0,0,-2.1679,-2.1716,-2.175,-2.1796,-2.1811,-2.1834,-2.1856,-2.1863,-2.1894,-2.1906,-2.1929,-2.1958,-2.1994,-2.2017,-2.2051,-2.2106,-2.2113,-2.2129,-2.2134,-2.2137,-2.2142,-2.2171,-2.2178,-2.2103,-2.2103,-2.2103,0,0,-2.1696,-2.1723,-2.1745,-2.1798,-2.1822,-2.1858,-2.1844,-2.1884,-2.1911,-2.1912,-2.196,-2.1978,-2.2012,-2.2064,-2.2088,-2.208,-2.2164,-2.2142,-2.2144,-2.2147,-2.2176,-2.2183,-2.2189,-2.2106,-2.2105,-2.2105,0,0,-2.1745,-2.177,-2.1811,-2.1835,-2.1871,-2.1886,-2.1895,-2.1931,-2.1943,-2.1992,-2.1993,-2.2025,-2.2086,-2.2109,-2.2129,-2.2186,-2.2185,-2.2197,-2.222,-2.2249,-2.2255,-2.226,-2.2279,-2.2286,-2.2201,-2.2201,-2.2201,0,-2.1761,-2.1817,-2.1831,-2.1871,-2.1893,-2.1896,-2.1937,-2.1959,-2.2004,-2.2019,-2.201,-2.2086,-2.2108,-2.2166,-2.2179,-2.2196,-2.2206,-2.2192,-2.2253,-2.2258,-2.2263,-2.2282,-2.2289,-2.2203,-2.2202,-2.2202,-2.2202,0,-2.1835,-2.1873,-2.1901,-2.1945,-2.1971,-2.2011,-2.203,-2.2054,-2.206,-2.2075,-2.2124,-2.2151,-2.2191,-2.2205,-2.2211,-2.2263,-2.2256,-2.225,-2.2232,-2.2271,-2.2289,-2.2296,-2.2204,-2.2204,-2.2203,-2.2203,0,0,-2.189,-2.1941,-2.1951,-2.197,-2.201,-2.2039,-2.2078,-2.2117,-2.2137,-2.2168,-2.2201,-2.2252,-2.2245,-2.2268,-2.2276,-2.2301,-2.2343,-2.2291,-2.2292,-2.2299,-2.2401,-2.2405,-2.2413,-2.2343,-2.2344,-2.2345,-2.2398,0,-2.1943,-2.2014,-2.2027,-2.2088,-2.2123,-2.2126,-2.216,-2.2187,-2.2203,-2.2234,-2.2251,-2.2286,-2.2276,-2.2289,-2.2314,-2.2332,-2.2363,-2.2329,-2.2372,-2.2374,-2.2363,-2.2423,-2.2428,-2.2477,-2.2405,-2.2406,-2.2407,0,-2.2014,-2.2047,-2.2111,-2.2145,-2.216,-2.2191,-2.2227,-2.2257,-2.2288,-2.2297,-2.2322,-2.2327,-2.2366,-2.2347,-2.2402,-2.2378,-2.2396,-2.2408,-2.241,-2.2414,-2.2392,-2.2428,-2.2492,-2.2499,-2.2418,-2.2417,-2.2416,0,-2.2047,-2.2107,-2.2153,-2.217,-2.2211,-2.2232,-2.225,-2.2279,-2.2301,-2.2332,-2.2347,-2.2382,-2.2401,-2.2428,-2.2442,-2.2427,-2.2495,-2.2477,-2.2503,-2.2503,-2.2517,-2.2516,-2.2585,-2.253,-2.253,-2.253,-2.253,0,-2.2104,-2.2143,-2.2168,-2.2197,-2.224,-2.2255,-2.2297,-2.2315,-2.2341,-2.2372,-2.2376,-2.2405,-2.2422,-2.2453,-2.2464,-2.2507,-2.2516,-2.2524,-2.2526,-2.2523,-2.2522,-2.2535,-2.2532,-2.2532,-2.2531,-2.2531,-2.253,0,-2.2148,-2.2167,-2.2217,-2.2252,-2.2261,-2.2292,-2.2321,-2.2348,-2.2363,-2.2402,-2.2412,-2.2435,-2.2472,-2.2489,-2.2534,-2.2541,-2.259,-2.259,-2.258,-2.2581,-2.2605,-2.2603,-2.2685,-2.2696,-2.2634,-2.2634,-2.2635,0,-2.2184,-2.2214,-2.2251,-2.2273,-2.2291,-2.2325,-2.2348,-2.2363,-2.2386,-2.2423,-2.2445,-2.2482,-2.2512,-2.257,-2.2591,-2.2625,-2.2626,-2.2653,-2.2631,-2.2627,-2.2626,-2.2624,-2.2626,-2.2656,-2.2657,-2.2657,-2.2658,0,-2.2244,-2.2251,-2.2284,-2.232,-2.2347,-2.2375,-2.2403,-2.242,-2.2439,-2.2465,-2.2503,-2.2526,-2.2572,-2.2609,-2.2644,-2.2662,-2.2663,-2.2664,-2.2672,-2.2669,-2.2661,-2.2665,-2.259,-2.2662,-2.2662,-2.2662,-2.2661,-2.2661,-2.2284,-2.2311,-2.2341,-2.2377,-2.24,-2.2426,-2.2453,-2.2471,-2.2503,-2.2542,-2.2548,-2.2588,-2.2617,-2.2665,-2.2683,-2.2714,-2.2708,-2.2719,-2.2722,-2.2724,-2.2725,-2.2657,-2.2721,-2.2721,-2.2721,-2.272,-2.272,0,-2.2344,-2.2363,-2.2396,-2.2435,-2.2463,-2.2462,-2.2493,-2.2516,-2.2552,-2.2578,-2.2608,-2.2651,-2.2686,-2.2709,-2.2744,-2.2764,-2.2765,-2.2773,-2.2771,-2.2775,-2.273,-2.2719,-2.2771,-2.2771,-2.2771,-2.2771,-2.2771,-2.2771,-2.2378,-2.2423,-2.2434,-2.2489,-2.2508,-2.2548,-2.2565,-2.2589,-2.261,-2.2658,-2.2687,-2.2702,-2.2727,-2.2764,-2.2796,-2.2801,-2.2814,-2.2821,-2.2827,-2.2784,-2.2778,-2.2773,-2.2764,-2.2824,-2.2824,-2.287,-2.287,-2.287]}]]